Lid_Strength_Index
3 3 4 5 5 7 4 2 6 1 -0 5 6 8 5 7 5 5 6 6 7 7 6 7 7 7 6 4 4 6 5 8 11 9 6 5 6 7 7 9 10 10 12 13
4 3 4 5 5 6 5 4 5 1 1 7 7 6 5 5 6 6 7 7 6 5 6 7 6 7 4 4 5 6 5 7 12 9 7 6 7 6 6 7 7 11 13 13
4 4 4 5 5 5 5 4 6 4 3 4 7 8 6 6 4 5 4 5 6 7 8 6 6 7 5 4 4 3 3 7 10 12 11 8 8 7 6 7 9 11 12 11
4 4 4 5 5 5 3 4 5 5 8 6 5 5 6 6 7 4 4 5 8 9 9 9 8 7 5 4 5 4 5 9 8 8 7 7 7 7 7 7 8 10 10 11
4 4 4 5 5 5 2 5 5 4 5 7 6 6 5 6 6 5 6 6 5 7 11 10 9 8 8 6 5 5 5 9 8 9 7 7 8 7 7 7 7 9 9 10
5 4 5 5 5 5 2 2 2 4 6 5 5 5 7 7 5 4 4 5 5 6 7 5 5 5 6 6 7 6 6 8 11 11 9 9 9 7 7 6 7 8 11 11
4 5 5 5 4 5 3 1 2 5 7 6 6 5 5 6 5 5 4 4 5 4 2 3 3 4 5 5 5 4 6 9 12 12 11 16 8 5 5 6 7 7 9 8
5 4 4 4 4 5 4 2 2 4 7 5 5 5 5 4 4 5 4 4 3 2 3 6 7 7 6 6 5 5 5 6 9 10 10 8 7 6 7 8 9 7 8 7
5 5 4 4 4 4 4 2 0 3 6 6 4 5 5 5 5 5 4 3 2 3 5 6 8 10 8 8 7 5 5 5 7 8 11 12 8 6 4 5 10 7 7 8
6 5 5 4 3 4 4 3 1 2 6 4 4 5 6 4 4 5 4 4 4 3 6 8 8 8 6 9 9 8 7 7 9 8 9 8 6 5 4 9 11 6 7 7
6 5 5 4 3 4 3 4 2 2 4 4 3 3 4 4 4 6 5 5 5 5 7 7 7 7 7 7 6 8 8 9 9 8 10 11 4 5 8 6 5 6 6 6
5 5 5 4 4 3 4 5 1 -0 3 4 1 1 1 2 2 4 4 5 5 4 6 6 6 8 7 7 9 5 9 6 8 7 9 5 4 4 4 4 4 5 6 6
4 4 5 4 4 4 4 5 3 2 3 4 3 3 1 0 1 0 5 4 3 4 3 5 6 7 6 8 8 8 5 5 7 7 6 5 4 3 3 3 3 3 3 3
3 3 4 4 4 4 5 5 3 3 3 7 5 1 2 0 0 1 1 2 2 2 3 5 6 7 5 7 7 7 6 5 6 6 5 5 4 4 3 3 3 3 3 3
2 3 3 3 3 3 4 4 4 3 4 7 6 3 1 1 1 1 1 2 3 4 5 5 6 5 5 5 5 7 5 6 7 7 5 4 4 3 3 3 3 3 3 3
1 1 2 2 2 3 4 5 3 2 2 5 8 2 3 2 1 2 2 2 3 3 4 5 4 3 4 7 8 4 4 3 3 5 3 4 3 3 2 3 3 2 2 2
0 1 1 1 2 3 4 5 6 5 4 5 7 6 3 2 2 2 3 2 3 3 4 5 5 4 4 6 8 4 3 3 3 3 3 4 3 4 3 2 2 2 2 2
0 1 1 1 2 2 3 1 4 6 4 4 8 7 5 2 4 5 3 4 4 4 5 4 5 5 5 8 5 4 3 3 3 3 3 3 2 2 2 2 2 3 3 2
1 1 1 1 2 2 2 0 2 3 5 8 7 8 8 3 4 4 4 4 7 4 6 6 5 7 8 6 5 4 3 4 4 3 3 3 3 3 3 3 3 3 3 2
1 2 3 4 2 -1 -1 1 4 5 5 7 8 5 8 5 5 6 5 5 7 8 7 4 7 7 5 4 3 3 3 3 3 4 4 3 3 3 3 3 2 2 2 2
3 3 4 1 -1 1 3 6 8 8 9 7 6 6 7 5 8 7 5 7 6 9 8 8 8 8 6 4 4 3 2 2 3 2 2 2 2 3 3 3 2 2 2 2
4 4 2 1 3 6 9 9 8 9 11 8 7 6 5 5 4 7 7 8 8 10 5 8 10 7 5 4 4 3 3 3 3 2 3 3 3 2 2 2 2 2 2 1
2 3 5 5 6 12 12 13 11 11 7 7 7 7 5 5 5 7 7 10 9 5 8 9 8 5 4 4 3 4 3 3 2 3 2 2 2 2 2 2 2 2 1 1
5 7 11 9 10 8 8 8 7 6 7 7 7 7 8 6 9 9 11 8 8 11 11 10 6 6 5 4 4 4 3 3 3 3 3 3 2 2 2 2 1 2 2 1
7 6 11 8 6 6 5 4 5 5 5 6 7 7 8 9 10 9 10 11 12 10 10 7 7 5 5 4 4 4 3 3 3 3 3 3 2 3 2 2 2 1 1 1
7 7 8 6 6 7 6 7 6 4 5 5 6 9 10 11 10 12 12 12 11 9 8 6 5 5 4 4 3 3 3 3 3 2 2 2 3 3 2 2 2 2 1 2
8 7 4 5 5 6 6 5 6 3 5 9 8 11 12 10 12 11 8 10 8 7 6 5 5 5 4 3 3 3 3 3 2 2 2 2 2 2 2 3 2 2 1 1